Idaho Falls, ID

3:37 PM MDT on August 24, 2016 (GMT -0600)
Fanning

Weather History for KIDA - November, 2012

Change the Weather History Date:

Thursday, November 22, 2012

  Actual Average Record
Temperature  
Mean Temperature 32 °F 29 °F  
Max Temperature 40 °F 38 °F 58 °F (1954)
Min Temperature 24 °F 20 °F -8 °F (1985)
Degree Days  
Heating Degree Days 33 36  
Month to date heating degree days 576 674  
Since 1 July heating degree days 1339 1596  
Cooling Degree Days 0 0  
Month to date cooling degree days 0 0  
Year to date cooling degree days 444 264  
Moisture  
Dew Point 24 °F    
Average Humidity 68    
Maximum Humidity 85    
Minimum Humidity 50    
Precipitation  
Precipitation 0.00 in 0.03 in 0.30 in (1992)
Month to date precipitation 0.47 0.63  
Year to date precipitation 5.65 9.28  
Sea Level Pressure  
Sea Level Pressure 30.45 in    
Wind  
Wind Speed 9 mph (SSW)    
Max Wind Speed 21 mph    
Max Gust Speed 24 mph    
Visibility 10 miles    
Events      
T = Trace of Precipitation, MM = Missing Value Source: NWS Daily Summary

Daily Weather History Graph

Daily Weather History Graph

Search for Another Location

Airport or City:

Trip Planner

Search our weather history database for the weather conditions in past years. The results will help you decide how hot, cold, wet, or windy it might be!

Date:

Astronomy

Nov. 22, 2012 Rise Set
Actual Time 7:31 AM MST 4:57 PM MST
Civil Twilight 7:00 AM MST 5:28 PM MST
Nautical Twilight 6:24 AM MST 6:03 PM MST
Astronomical Twilight 5:50 AM MST 6:38 PM MST
Moon 1:52 PM MST (11/22) 1:46 AM MST (11/22)
Length of Visible Light 10h 28m
Length of Day
9h 25m
Waxing Gibbous, 72% of the Moon is Illuminated
Nov 22
Waxing Gibbous
Nov 28
Full
Dec 6
Last Quarter
Dec 13
New
Dec 19
First Quarter

Hourly Weather History & Observations

Time (MST) Temp. Windchill Dew Point Humidity Pressure Visibility Wind Dir Wind Speed Gust Speed Precip Events Conditions
12:53 AM 32.0 °F 23.6 °F 27.0 °F 82% 30.20 in 10.0 mi South 10.4 mph - N/A   Clear
1:53 AM 32.0 °F 21.2 °F 27.0 °F 82% 30.21 in 10.0 mi South 16.1 mph - N/A   Partly Cloudy
2:53 AM 30.9 °F 20.2 °F 26.1 °F 82% 30.22 in 10.0 mi SSW 15.0 mph - N/A   Clear
3:53 AM 30.9 °F 21.2 °F 25.0 °F 79% 30.26 in 10.0 mi South 12.7 mph - N/A   Clear
4:53 AM 30.0 °F 19.5 °F 25.0 °F 82% 30.30 in 10.0 mi South 13.8 mph - N/A   Clear
5:53 AM 30.0 °F 19.1 °F 24.1 °F 79% 30.32 in 10.0 mi SSW 15.0 mph 24.2 mph N/A   Clear
6:53 AM 28.9 °F 20.4 °F 24.1 °F 82% 30.36 in 10.0 mi South 9.2 mph - N/A   Clear
7:53 AM 28.9 °F 19.8 °F 24.1 °F 82% 30.41 in 10.0 mi SSW 10.4 mph - N/A   Scattered Clouds
8:53 AM 30.9 °F 22.2 °F 25.0 °F 79% 30.44 in 10.0 mi SSW 10.4 mph - N/A   Scattered Clouds
9:53 AM 33.1 °F 24.4 °F 25.0 °F 72% 30.47 in 10.0 mi SSW 11.5 mph - N/A   Clear
10:53 AM 35.1 °F 26.4 °F 25.0 °F 67% 30.48 in 10.0 mi SW 12.7 mph - N/A   Clear
11:53 AM 36.0 °F 28.5 °F 25.0 °F 64% 30.48 in 10.0 mi SW 10.4 mph - N/A   Clear
12:53 PM 37.9 °F 30.9 °F 25.0 °F 60% 30.48 in 10.0 mi SW 10.4 mph - N/A   Clear
1:53 PM 39.0 °F 31.4 °F 26.1 °F 60% 30.48 in 10.0 mi SW 12.7 mph - N/A   Partly Cloudy
2:53 PM 39.0 °F 32.3 °F 23.0 °F 53% 30.48 in 10.0 mi SW 10.4 mph - N/A   Clear
3:53 PM 39.0 °F 34.0 °F 23.0 °F 53% 30.50 in 10.0 mi SW 6.9 mph - N/A   Clear
4:53 PM 37.0 °F 31.0 °F 26.1 °F 65% 30.52 in 10.0 mi SSW 8.1 mph - N/A   Clear
5:53 PM 33.1 °F 27.7 °F 25.0 °F 72% 30.56 in 10.0 mi SSW 5.8 mph - N/A   Clear
6:53 PM 33.1 °F 26.9 °F 24.1 °F 70% 30.58 in 10.0 mi ESE 6.9 mph - N/A   Clear
7:53 PM 32.0 °F 28.7 °F 23.0 °F 69% 30.59 in 10.0 mi SSW 3.5 mph - N/A   Clear
8:53 PM 30.9 °F - 23.0 °F 72% 30.59 in 10.0 mi Calm Calm - N/A   Clear
9:53 PM 27.0 °F - 21.9 °F 81% 30.61 in 10.0 mi Calm Calm - N/A   Clear
10:53 PM 26.1 °F - 21.0 °F 81% 30.61 in 10.0 mi Calm Calm - N/A   Clear
11:53 PM 25.0 °F 20.7 °F 19.9 °F 81% 30.61 in 10.0 mi NNE 3.5 mph - N/A   Clear